This demonstration page uses our WeatherBlox Daily Observations layout. Learn more.

Left ArrowRight Arrow

Hourly Observations for November 13, 2016

Temp ( °F °C ) Dew Point ( °F °C ) Humidity (%) Winds ( mph kmh ) Pressure ( in mb ) Visibility ( mi km ) Precip ( " mm )
12:53 am 00:53 Clear with Mist and Fog 45 7.2 44 6.7 97 97 N 3 6 30.20 1023 6 10 0.00 0.00
1:53 am 01:53 Clear with Mist and Fog 44 6.7 44 6.7 100 100 ENE 3 6 30.19 1023 5 8 0.00 0.00
2:53 am 02:53 Clear with Mist and Fog 44 6.7 44 6.7 100 100 NE 3 6 30.18 1022 4 6 0.00 0.00
3:53 am 03:53 Clear with Mist and Fog 44 6.7 43 6.1 96 96 ENE 3 6 30.17 1022 3 5 0.00 0.00
4:53 am 04:53 Clear with Mist and Fog 43 6.1 43 6.1 100 100 E 3 6 30.16 1021 4 6 0.00 0.00
5:53 am 05:53 Clear with Mist and Fog 42 5.6 41 5 96 96 ENE 3 6 30.17 1022 4 6 0.00 0.00
6:53 am 06:53 Clear with Mist and Fog 43 6.1 42 5.6 97 97 Calm 30.18 1022 5 8 0.00 0.00
7:53 am 07:53 Sunny with Mist and Fog 42 5.6 41 5 96 96 N 3 6 30.20 1023 3 5 0.00 0.00
8:03 am 08:03 Sunny with Mist and Fog 43 6 43 6 100 100 Calm 30.27 1025 3 4 0.00 0.00
8:51 am 08:51 Sunny with Mist and Fog 48 9 46 8 94 94 Calm 30.24 1024 3 5 0.00 0.00
8:53 am 08:53 Sunny with Mist and Fog 48 8.9 47 8.3 96 96 Calm 30.20 1023 3 5 0.00 0.00
9:45 am 09:45 Partly Cloudy with Mist and Fog 52 11.1 49 9.4 89 89 SE 6 9 30.21 1023 5 8 0.00 0.00
9:53 am 09:53 Partly Cloudy with Mist and Fog 52 11.1 49 9.4 89 89 SSE 5 7 30.19 1022 6 10 0.00 0.00
10:53 am 10:53 Sunny 59 15 49 9.4 69 69 S 7 11 30.16 1022 10 16 0.00 0.00
11:53 am 11:53 Sunny 63 17.2 49 9.4 60 60 WSW 8 13 30.14 1021 10 16 0.00 0.00
12:53 pm 12:53 Sunny 66 18.9 48 8.9 52 52 WSW 9 15 30.10 1019 10 16 0.00 0.00
1:53 pm 13:53 Sunny 69 20.6 48 8.9 47 47 SSW 10 17 30.06 1018 10 16 0.00 0.00
2:53 pm 14:53 Sunny 71 21.7 47 8.3 42 42 SW 8 13 30.03 1017 10 16 0.00 0.00
3:53 pm 15:53 Sunny 73 22.8 43 6.1 34 34 SW 7 11 30.01 1016 10 16 0.00 0.00
4:53 pm 16:53 Sunny 73 22.8 40 4.4 30 30 SW 12 19 30.01 1016 10 16 0.00 0.00
5:53 pm 17:53 Sunny 67 19.4 42 5.6 41 41 SW 8 13 30.01 1016 10 16 0.00 0.00
6:53 pm 18:53 Clear 59 15 44 6.7 58 58 SSW 8 13 30.04 1017 10 16 0.00 0.00
7:53 pm 19:53 Clear 56 13.3 44 6.7 65 65 SW 8 13 30.05 1018 10 16 0.00 0.00
8:53 pm 20:53 Clear 54 12.2 44 6.7 69 69 SW 7 11 30.05 1018 10 16 0.00 0.00
9:53 pm 21:53 Clear 53 11.7 45 7.2 74 74 SSW 6 9 30.05 1018 10 16 0.00 0.00
10:53 pm 22:53 Clear 51 10.6 45 7.2 80 80 SSE 7 11 30.04 1017 10 16 0.00 0.00
11:53 pm 23:53 Clear 49 9.4 45 7.2 86 86 SSE 8 13 30.05 1018 10 16 0.00 0.00

Powered by AerisWeather